DW1114 Weather Reports


Display with metric or nautical units.
time (UTC)temp
F
wind
direction
speed
MPH
gust
MPH
rain 1hr
in
rain 24hr
in
rain mn
in
humidity
%
barometer
mb
20260831124402 77 212 0.0 5.0 0.00 0.00 0.00 1018.0
20260831123924 77 212 0.0 2.0 0.00 0.00 0.00 1018.3
20260831123424 76 192 0.0 5.0 0.00 0.00 0.00 1018.0
20260831122904 77 201 0.0 5.0 0.00 0.00 0.00 1018.0
20260831122403 76 209 0.0 3.0 0.00 0.00 0.00 1018.3
20260831121924 76 202 0.0 1.0 0.00 0.00 0.00 1018.3
20260831121404 76 196 0.0 6.0 0.00 0.00 0.00 1017.6
20260831120903 76 206 0.0 6.0 0.00 0.00 0.00 1017.6
20260831120424 75 180 0.0 6.0 0.00 0.00 0.00 1017.6
20260831115903 75 158 0.0 6.0 0.00 0.00 0.00 1018.3
20260831115403 75 203 0.0 6.0 0.00 0.00 0.00 1017.6
20260831114903 75 202 0.0 6.0 0.00 0.00 0.00 1017.6
20260831114424 75 202 0.0 4.0 0.00 0.00 0.00 1017.6
20260831113903 75 203 0.0 6.0 0.00 0.00 0.00 1017.6
20260831113402 75 203 0.0 6.0 0.00 0.00 0.00 1017.6
20260831112924 75 192 0.0 4.0 0.00 0.00 0.00 1017.6
20260831112403 75 191 0.0 4.0 0.00 0.00 0.00 1018.3
20260831111903 75 207 0.0 6.0 0.00 0.00 0.00 1017.3
20260831111445 75 184 0.0 6.0 0.00 0.00 0.00 1018.0
20260831110903 75 197 0.0 2.0 0.00 0.00 0.00 1017.6
20260831110403 75 182 0.0 3.0 0.00 0.00 0.00 1018.0
20260831105903 75 183 0.0 6.0 0.00 0.00 0.00 1017.6
20260831105402 75 182 0.0 6.0 0.00 0.00 0.00 1017.3
20260831104903 75 183 0.0 6.0 0.00 0.00 0.00 1018.3
20260831104403 75 202 0.0 6.0 0.00 0.00 0.00 1017.6
20260831103903 75 202 0.0 4.0 0.00 0.00 0.00 1017.6
20260831103403 75 180 0.0 4.0 0.00 0.00 0.00 1017.3
20260831102903 75 188 0.0 6.0 0.00 0.00 0.00 1018.0
20260831102424 75 182 0.0 6.0 0.00 0.00 0.00 1018.0
20260831101903 75 169 0.0 5.0 0.00 0.00 0.00 1017.6
20260831101402 75 180 0.0 6.0 0.00 0.00 0.00 1018.0
20260831100903 75 180 0.0 6.0 0.00 0.00 0.00 1017.3
20260831100403 75 202 0.0 3.0 0.00 0.00 0.00 1017.6
20260831095925 75 198 0.0 3.0 0.00 0.00 0.00 1017.3
20260831095404 75 184 0.0 6.0 0.00 0.00 0.00 1018.0
20260831094903 75 185 0.0 6.0 0.00 0.00 0.00 1017.6
20260831094402 75 203 0.0 6.0 0.00 0.00 0.00 1017.6
20260831093903 75 203 0.0 6.0 0.00 0.00 0.00 1018.0
20260831093424 75 185 0.0 3.0 0.00 0.00 0.00 1017.3
20260831092924 75 202 0.0 6.0 0.00 0.00 0.00 1017.6
20260831092403 75 184 0.0 6.0 0.00 0.00 0.00 1017.6
20260831091903 75 180 0.0 6.0 0.00 0.00 0.00 1017.3
20260831091403 75 195 0.0 2.0 0.00 0.00 0.00 1017.6
20260831090903 74 180 0.0 2.0 0.00 0.00 0.00 1017.6
20260831090403 75 360 0.0 0.0 0.00 0.00 0.00 1018.0
20260831085903 75 360 0.0 2.0 0.00 0.00 0.00 1017.6
20260831085403 75 360 0.0 2.0 0.00 0.00 0.00 1018.0
20260831084903 75 180 0.0 6.0 0.00 0.00 0.00 1017.3
20260831084403 75 180 0.0 6.0 0.00 0.00 0.00 1017.0
20260831083902 75 202 0.0 6.0 0.00 0.00 0.00 1017.6
20260831083403 75 203 0.0 6.0 0.00 0.00 0.00 1017.0
20260831082903 74 181 0.0 2.0 0.00 0.00 0.00 1017.0
20260831082424 74 180 0.0 1.0 0.00 0.00 0.00 1017.0
20260831081903 74 202 0.0 1.0 0.00 0.00 0.00 1018.0
20260831080425 74 315 0.0 2.0 0.00 0.00 0.00 1017.3
20260831075903 74 202 0.0 2.0 0.00 0.00 0.00 1017.3
20260831075402 74 180 0.0 0.0 0.00 0.00 0.00 1017.0
20260831074924 74 158 0.0 2.0 0.00 0.00 0.00 1016.6
20260831074403 74 158 0.0 2.0 0.00 0.00 0.00 1017.0
20260831073903 74 135 0.0 1.0 0.00 0.00 0.00 1017.0
20260831073424 74 180 0.0 1.0 0.00 0.00 0.00 1017.0
20260831072924 74 158 0.0 1.0 0.00 0.00 0.00 1017.0
20260831072445 74 180 0.0 1.0 0.00 0.00 0.00 1017.3
20260831071903 75 158 0.0 2.0 0.00 0.00 0.00 1017.3
20260831071404 75 158 0.0 2.0 0.00 0.00 0.00 1017.3
20260831070902 75 176 0.0 6.0 0.00 0.00 0.00 1017.6
20260831070403 75 179 0.0 6.0 0.00 0.00 0.00 1017.3
20260831065903 75 176 0.0 5.0 0.00 0.00 0.00 1017.3
20260831065403 75 163 0.0 6.0 0.00 0.00 0.00 1017.0
20260831064903 75 159 0.0 6.0 0.00 0.00 0.00 1017.3
20260831064403 75 148 0.0 6.0 0.00 0.00 0.00 1017.3
20260831063903 75 158 0.0 2.0 0.00 0.00 0.00 1017.3
20260831063424 75 159 0.0 3.0 0.00 0.00 0.00 1017.6
20260831062903 75 180 0.0 3.0 0.00 0.00 0.00 1017.3
20260831062403 75 158 1.0 3.0 0.00 0.00 0.00 1017.3
20260831061902 75 169 1.0 3.0 0.00 0.00 0.00 1017.3
20260831061403 75 156 0.0 3.0 0.00 0.00 0.00 1017.3
20260831060903 75 162 0.0 3.0 0.00 0.00 0.00 1017.6
20260831060403 75 162 0.0 3.0 0.00 0.00 0.00 1018.3
20260831055903 75 164 0.0 1.0 0.00 0.00 0.00 1018.0
20260831055403 75 153 0.0 1.0 0.00 0.00 0.00 1017.6
20260831054924 75 161 0.0 1.0 0.00 0.00 0.00 1018.0
20260831054402 75 166 0.0 2.0 0.00 0.00 0.00 1018.3
20260831053903 75 158 0.0 2.0 0.00 0.00 0.00 1018.0
20260831053402 75 158 0.0 1.0 0.00 0.00 0.00 1017.6
20260831052924 75 161 0.0 2.0 0.00 0.00 0.00 1018.0
20260831052403 75 149 0.0 2.0 0.00 0.00 0.00 1017.6
20260831051904 75 155 0.0 6.0 0.00 0.00 0.00 1018.3
20260831051424 75 158 0.0 6.0 0.00 0.00 0.00 1018.0
20260831050903 75 161 0.0 3.0 0.00 0.00 0.00 1018.0
20260831050402 75 182 0.0 3.0 0.00 0.00 0.00 1018.0
20260831045903 75 156 0.0 5.0 0.00 0.00 0.00 1018.0
20260831045403 75 158 0.0 5.0 0.00 0.00 0.00 1018.0
20260831043903 75 159 0.0 6.0 0.00 0.00 0.00 1018.3
20260831043402 75 155 0.0 5.0 0.00 0.00 0.00 1018.0
20260831042903 75 163 0.0 3.0 0.00 0.00 0.00 1018.0
20260831042402 75 158 0.0 3.0 0.00 0.00 0.00 1018.0
20260831041903 75 148 0.0 2.0 0.00 0.00 0.00 1018.0
20260831041424 75 158 0.0 6.0 0.00 0.00 0.00 1018.0
20260831040902 75 158 0.0 6.0 0.00 0.00 0.00 1018.7
20260831040403 75 158 0.0 0.0 0.00 0.00 0.00 1018.3
20260831035924 75 158 0.0 0.0 0.00 0.00 0.00 1018.3
20260831035424 75 158 0.0 0.0 0.00 0.00 0.00 1018.3
20260831034902 75 158 0.0 0.0 0.00 0.00 0.00 1018.0
20260831034403 76 158 0.0 2.0 0.00 0.00 0.00 1018.3
20260831033902 76 113 0.0 2.0 0.00 0.00 0.00 1018.0
20260831033403 76 158 0.0 6.0 0.00 0.00 0.00 1018.7
20260831032903 76 135 0.0 6.0 0.00 0.00 0.00 1018.3
20260831032403 76 35 6.0 6.0 0.00 0.00 0.00 1018.3
20260831031903 76 338 0.0 0.0 0.00 0.00 0.00 1018.3
20260831031403 77 180 0.0 0.0 0.00 0.00 0.00 1018.3
20260831030903 77 135 0.0 0.0 0.00 0.00 0.00 1018.7
20260831030403 77 158 0.0 1.0 0.00 0.00 0.00 1018.3
20260831025903 77 154 0.0 1.0 0.00 0.00 0.00 1018.3
20260831025403 77 203 0.0 3.0 0.00 0.00 0.00 1018.3
20260831024903 77 158 0.0 3.0 0.00 0.00 0.00 1018.0
20260831024402 77 159 0.0 6.0 0.00 0.00 0.00 1018.7
20260831023903 77 129 0.0 6.0 0.00 0.00 0.00 1018.3
20260831023403 77 140 0.0 1.0 0.00 0.00 0.00 1018.3
20260831022903 77 158 0.0 5.0 0.00 0.00 0.00 1018.0
20260831022403 77 140 0.0 5.0 0.00 0.00 0.00 1018.3
20260831021903 77 176 0.0 1.0 0.00 0.00 0.00 1018.3
20260831021403 77 158 0.0 6.0 0.00 0.00 0.00 1018.7
20260831020902 78 202 0.0 6.0 0.00 0.00 0.00 1018.7
20260831020403 77 158 0.0 2.0 0.00 0.00 0.00 1018.7
20260831015904 77 180 0.0 1.0 0.00 0.00 0.00 1018.0
20260831015403 77 158 0.0 6.0 0.00 0.00 0.00 1018.0
20260831014902 77 158 0.0 6.0 0.00 0.00 0.00 1018.0
20260831014403 77 135 0.0 0.0 0.00 0.00 0.00 1017.6
20260831013903 78 45 0.0 0.0 0.00 0.00 0.00 1018.3
20260831013403 78 68 0.0 0.0 0.00 0.00 0.00 1018.7
20260831012903 78 158 0.0 0.0 0.00 0.00 0.00 1018.0
20260831012403 78 203 0.0 0.0 0.00 0.00 0.00 1018.0
20260831011903 78 203 0.0 0.0 0.00 0.00 0.00 1018.7
20260831011403 78 338 0.0 0.0 0.00 0.00 0.00 1017.6
20260831010903 79 360 0.0 0.0 0.00 0.00 0.00 1018.0
20260831010403 79 293 0.0 0.0 0.00 0.00 0.00 1018.3
20260831005902 79 225 0.0 0.0 0.00 0.00 0.00 1017.6
20260831005424 79 23 0.0 0.0 0.00 0.00 0.00 1018.0
20260831004903 80 338 0.0 0.0 0.00 0.00 0.00 1017.6
20260831004424 80 23 0.0 0.0 0.00 0.00 0.00 1017.3
20260831003924 80 338 0.0 0.0 0.00 0.00 0.00 1017.6
20260831003403 81 158 0.0 6.0 0.00 0.00 0.00 1017.6
20260831002924 81 155 1.0 6.0 0.00 0.00 0.00 1017.6
20260831002424 81 180 0.0 0.0 0.00 0.00 0.00 1017.3
20260831001903 82 45 0.0 0.0 0.00 0.00 0.00 1017.3
20260831001403 83 23 0.0 6.0 0.00 0.00 0.00 1017.3
20260831000903 83 338 0.0 6.0 0.00 0.00 0.00 1016.6
20260831000425 84 360 0.0 5.0 0.00 0.00 0.00 1017.3
20260830235903 84 310 0.0 5.0 0.00 0.00 0.00 1017.3
20260830235402 84 327 0.0 6.0 0.00 0.00 0.00 1017.3
20260830234924 84 313 0.0 6.0 0.00 0.00 0.00 1017.3
20260830234424 83 334 0.0 3.0 0.00 0.00 0.00 1017.0
20260830233903 84 308 0.0 6.0 0.00 0.00 0.00 1017.3
20260830233403 84 357 0.0 6.0 0.00 0.00 0.00 1017.3
20260830232903 85 292 1.0 6.0 0.00 0.00 0.00 1017.3
20260830232403 85 293 0.0 6.0 0.00 0.00 0.00 1016.6
20260830230924 87 272 1.0 4.0 0.00 0.00 0.00 1017.3
20260830230403 88 286 0.0 4.0 0.00 0.00 0.00 1017.3
20260830225903 88 282 2.0 6.0 0.00 0.00 0.00 1017.3
20260830225404 89 288 4.0 6.0 0.00 0.00 0.00 1017.0
20260830224903 89 290 3.0 6.0 0.00 0.00 0.00 1017.3
20260830224403 89 308 2.0 6.0 0.00 0.00 0.00 1017.3
20260830223924 87 202 1.0 6.0 0.00 0.00 0.00 1017.3
20260830223403 89 286 3.0 6.0 0.00 0.00 0.00 1016.6
20260830222902 88 149 0.0 6.0 0.00 0.00 0.00 1016.6
20260830222403 87 191 0.0 6.0 0.00 0.00 0.00 1017.0
20260830221903 88 252 2.0 5.0 0.00 0.00 0.00 1017.3
20260830221403 87 192 2.0 5.0 0.00 0.00 0.00 1016.6
20260830220903 88 272 3.0 6.0 0.00 0.00 0.00 1017.3
20260830220424 88 269 2.0 6.0 0.00 0.00 0.00 1017.0
20260830215903 86 187 2.0 6.0 0.00 0.00 0.00 1017.0
20260830215403 87 189 0.0 3.0 0.00 0.00 0.00 1017.0
20260830214903 89 257 2.0 9.0 0.00 0.00 0.00 1017.0
20260830214403 89 240 2.0 9.0 0.00 0.00 0.00 1016.6
20260830213925 89 279 4.0 7.0 0.00 0.00 0.00 1017.0
20260830213403 88 279 3.0 6.0 0.00 0.00 0.00 1017.0
20260830212903 87 302 4.0 6.0 0.00 0.00 0.00 1017.3
20260830212424 86 215 0.0 4.0 0.00 0.00 0.00 1017.3
20260830211902 85 189 2.0 4.0 0.00 0.00 0.00 1017.0
20260830211403 85 209 0.0 4.0 0.00 0.00 0.00 1017.3
20260830210902 85 246 0.0 6.0 0.00 0.00 0.00 1017.3
20260830210403 85 284 2.0 6.0 0.00 0.00 0.00 1017.6
20260830205903 85 202 1.0 3.0 0.00 0.00 0.00 1017.3
20260830205403 85 221 0.0 5.0 0.00 0.00 0.00 1017.0
20260830204403 85 176 0.0 5.0 0.00 0.00 0.00 1017.0
20260830203903 84 214 2.0 5.0 0.00 0.00 0.00 1017.0
20260830203403 85 185 2.0 4.0 0.00 0.00 0.00 1017.0
20260830202903 85 193 2.0 5.0 0.00 0.00 0.00 1016.3
20260830202402 85 194 2.0 5.0 0.00 0.00 0.00 1017.3
20260830201903 85 189 2.0 5.0 0.00 0.00 0.00 1017.0
20260830201402 84 187 2.0 5.0 0.00 0.00 0.00 1017.0
20260830200903 85 204 2.0 6.0 0.00 0.00 0.00 1017.0
20260830200403 85 193 0.0 6.0 0.00 0.00 0.00 1017.0
20260830195903 84 179 1.0 3.0 0.00 0.00 0.00 1017.0
20260830195403 85 179 2.0 5.0 0.00 0.00 0.00 1017.6
20260830194904 85 213 2.0 5.0 0.00 0.00 0.00 1018.3
20260830194403 85 269 1.0 6.0 0.00 0.00 0.00 1018.7
20260830193903 85 360 0.0 6.0 0.00 0.00 0.00 1018.3
20260830193403 85 190 1.0 4.0 0.00 0.00 0.00 1019.0
20260830192903 86 193 2.0 8.0 0.00 0.00 0.00 1019.0
20260830192403 87 282 5.0 8.0 0.00 0.00 0.00 1018.7
20260830191903 87 185 2.0 6.0 0.00 0.00 0.00 1019.0
20260830191402 86 304 3.0 6.0 0.00 0.00 0.00 1018.7
20260830190903 86 180 1.0 6.0 0.00 0.00 0.00 1018.3
20260830190402 86 277 2.0 5.0 0.00 0.00 0.00 1018.7
20260830185903 86 216 0.0 5.0 0.00 0.00 0.00 1019.0
20260830185403 86 257 1.0 7.0 0.00 0.00 0.00 1018.7
20260830184903 87 315 5.0 9.0 0.00 0.00 0.00 1018.7
20260830184403 87 279 3.0 9.0 0.00 0.00 0.00 1018.7
20260830183903 87 311 3.0 11.0 0.00 0.00 0.00 1019.3
20260830183403 87 291 3.0 11.0 0.00 0.00 0.00 1019.7
20260830182924 87 293 5.0 11.0 0.00 0.00 0.00 1019.3
20260830182402 87 295 5.0 9.0 0.00 0.00 0.00 1019.7
20260830181903 87 346 3.0 9.0 0.00 0.00 0.00 1020.0
20260830181402 86 290 5.0 9.0 0.00 0.00 0.00 1020.0
20260830180903 85 276 5.0 9.0 0.00 0.00 0.00 1020.0
20260830180424 85 210 2.0 8.0 0.00 0.00 0.00 1020.0
20260830175903 86 271 3.0 8.0 0.00 0.00 0.00 1019.3
20260830175403 86 289 2.0 12.0 0.00 0.00 0.00 1020.4
20260830174903 85 293 5.0 12.0 0.00 0.00 0.00 1020.0
20260830174425 85 278 4.0 11.0 0.00 0.00 0.00 1019.7
20260830173903 85 303 3.0 12.0 0.00 0.00 0.00 1020.0
20260830173403 86 287 5.0 12.0 0.00 0.00 0.00 1020.0
20260830172902 86 304 6.0 12.0 0.00 0.00 0.00 1020.4
20260830172403 86 290 5.0 12.0 0.00 0.00 0.00 1020.0
20260830171903 87 271 3.0 10.0 0.00 0.00 0.00 1019.7
20260830171403 87 308 3.0 10.0 0.00 0.00 0.00 1020.0
20260830170903 86 320 3.0 13.0 0.00 0.00 0.00 1020.4
20260830170403 86 310 3.0 13.0 0.00 0.00 0.00 1020.0
20260830165902 86 253 2.0 9.0 0.00 0.00 0.00 1020.7
20260830165403 85 235 2.0 12.0 0.00 0.00 0.00 1020.0
20260830164903 86 294 6.0 12.0 0.00 0.00 0.00 1020.0
20260830164424 86 278 2.0 7.0 0.00 0.00 0.00 1020.7
20260830163924 86 265 3.0 7.0 0.00 0.00 0.00 1020.7
20260830163425 86 276 2.0 6.0 0.00 0.00 0.00 1020.4
20260830162924 85 310 1.0 6.0 0.00 0.00 0.00 1020.4
20260830162403 85 289 3.0 7.0 0.00 0.00 0.00 1020.7
20260830161902 85 300 3.0 7.0 0.00 0.00 0.00 1020.0
20260830161403 85 281 1.0 5.0 0.00 0.00 0.00 1020.4
20260830160903 85 269 2.0 5.0 0.00 0.00 0.00 1020.4
20260830160403 84 160 0.0 4.0 0.00 0.00 0.00 1020.4
20260830155902 84 255 1.0 4.0 0.00 0.00 0.00 1020.0
20260830155403 84 143 1.0 4.0 0.00 0.00 0.00 1020.4
20260830154903 83 239 0.0 4.0 0.00 0.00 0.00 1020.0
20260830154402 83 207 0.0 4.0 0.00 0.00 0.00 1020.0
20260830153903 82 200 2.0 3.0 0.00 0.00 0.00 1019.7
20260830153424 81 164 0.0 3.0 0.00 0.00 0.00 1019.3
20260830152924 81 161 0.0 3.0 0.00 0.00 0.00 1019.7
20260830152403 81 202 0.0 3.0 0.00 0.00 0.00 1019.7
20260830151903 81 171 0.0 6.0 0.00 0.00 0.00 1019.3
20260830151403 81 170 0.0 6.0 0.00 0.00 0.00 1020.0
20260830150903 81 203 2.0 4.0 0.00 0.00 0.00 1019.3
20260830150403 81 200 1.0 3.0 0.00 0.00 0.00 1019.7
20260830145903 81 203 1.0 3.0 0.00 0.00 0.00 1019.7
20260830145403 80 194 2.0 3.0 0.00 0.00 0.00 1019.7
20260830144902 80 193 2.0 3.0 0.00 0.00 0.00 1019.0
20260830144403 80 179 2.0 3.0 0.00 0.00 0.00 1019.0
20260830143924 80 189 0.0 4.0 0.00 0.00 0.00 1019.3
20260830143403 80 186 2.0 4.0 0.00 0.00 0.00 1018.7
20260830142903 81 185 0.0 4.0 0.00 0.00 0.00 1019.3
20260830142424 80 192 2.0 4.0 0.00 0.00 0.00 1019.3
20260830141924 80 204 2.0 4.0 0.00 0.00 0.00 1019.3
20260830141403 80 279 1.0 3.0 0.00 0.00 0.00 1018.7
20260830140902 79 194 1.0 4.0 0.00 0.00 0.00 1018.7
20260830140403 79 168 0.0 4.0 0.00 0.00 0.00 1018.3
20260830135902 78 200 1.0 6.0 0.00 0.00 0.00 1018.7
20260830135403 78 198 2.0 6.0 0.00 0.00 0.00 1018.3
20260830134902 78 189 2.0 5.0 0.00 0.00 0.00 1018.3
20260830134403 78 193 1.0 3.0 0.00 0.00 0.00 1019.0
20260830133925 77 204 1.0 3.0 0.00 0.00 0.00 1018.7
20260830133403 77 200 1.0 2.0 0.00 0.00 0.00 1018.3
20260830132903 77 236 0.0 2.0 0.00 0.00 0.00 1018.3
20260830132403 76 190 1.0 3.0 0.00 0.00 0.00 1018.3
20260830131903 76 203 0.0 6.0 0.00 0.00 0.00 1018.0
20260830131402 76 195 0.0 6.0 0.00 0.00 0.00 1018.0
20260830130903 76 165 0.0 3.0 0.00 0.00 0.00 1018.7
20260830130403 75 204 0.0 3.0 0.00 0.00 0.00 1018.7
20260830125903 74 153 0.0 3.0 0.00 0.00 0.00 1018.7
20260830125402 74 194 0.0 3.0 0.00 0.00 0.00 1018.7